{"data":{"norad_id":87239,"intl_designator":"","name":"UNKNOWN","alt_names":[],"object_type":"UNKNOWN","status":"UNKNOWN","operator":null,"country":null,"launch_date":null,"launch_site_code":null,"launch_vehicle":null,"mission":null,"orbit_class":"UNKNOWN","rcs_meters":null,"size_class":null,"mass_kg":null,"dimensions":null,"purposes":[],"wikipedia_slug":null,"has_3d_model":false,"image_url":null,"decayed_at":null,"tle_current":{"epoch":"2026-09-16T07:13:20.414208Z","epoch_age_seconds":377054,"freshness":"STALE","line1":"1 87239U          26259.30093072  .00008158  00000+0  18222-2 0  9995","line2":"2 87239  82.8722 206.0934 0014412 238.2527 121.7270 14.56632793668225","mean_motion":14.56632793,"eccentricity":0.0014412,"inclination_deg":82.8722,"raan_deg":206.0934,"arg_perigee_deg":238.2527,"mean_anomaly_deg":121.727,"bstar":0.0018222,"rev_number":66822,"period_min":98.8581341104,"perigee_km":693.86045999871,"apogee_km":714.27420576781,"semimajor_km":7082.2043328833,"source":"CELESTRAK","updated_at":"2026-09-20T09:00:32.452381Z"}}}